Terminal Aerodrome Forecast
Issued by NWS Shreveport, LA

Home | Current Version | Previous Version | Text Only | Print | Product List | Glossary On
Versions: 1 2 3 4 5 6 7 8 9 10 11 12 13 14 15 16 17 18
000
FTUS44 KSHV 292340
TAFLFK
TAF
KLFK 292340Z 3000/3024 18016G22KT P6SM FEW050
     FM300600 17005KT P6SM OVC015
     FM300900 16002KT 2SM BR OVC004
     FM301500 16003KT 5SM BR OVC007
     FM302100 19004KT P6SM OVC015=

USA.gov is the U.S. government's official web portal to all federal, state and local government web resources and services.